Regional Weather Roundup
Issued by NWS

Home | Current Version | Previous Version | Graphics & Text | Print | Product List | Glossary Off
Versions: 1 2 3 4 5 6 7 8 9 10 11 12 13 14 15 16 17 18 19 20 21 22 23 24 25 26 27 28 29 30 31 32 33 34 35 36 37 38 39 40 41 42 43 44 45 46 47 48 49 50

000
ASUS43 KMKX 290711
RWRWI

WISCONSIN REGIONAL WEATHER ROUNDUP
NATIONAL WEATHER SERVICE MILWAUKEE/SULLIVAN WI
200 AM CDT THU SEP 29 2016

NOTE: "FAIR" INDICATES FEW OR NO CLOUDS BELOW 12,000 FEET WITH NO
SIGNIFICANT WEATHER AND/OR OBSTRUCTIONS TO VISIBILITY.

WIZ001-002-006>008-014>016-023>028-290800-
NORTHWEST WISCONSIN

CITY           SKY/WX    TMP DP  RH WIND       PRES   REMARKS
SUPERIOR ARPT  CLOUDY    47  47 100 W3        30.43R
ASHLAND        MOCLDY    49  48  97 CALM      30.41R
HAYWARD        FOG       47  46  97 NE3       30.41R VSB 3/4
SIREN          CLEAR     44  44  99 CALM      30.40S FOG
CUMBERLAND     CLEAR     46  45  93 NE5       30.39S
RICE LAKE      CLEAR     48  46  93 N5        30.40R
CHETEK         NOT AVBL
LADYSMITH      CLEAR     48  47  96 N3        30.39S
EAU CLAIRE     CLEAR     50  49  96 N6        30.35S
MENOMONIE      CLEAR     49  47  94 NW5       30.38R
NEW RICHMOND   CLEAR     46  46  98 CALM      30.38S
OSCEOLA        CLOUDY    43  43 100 CALM      30.42R FOG
$$

WIZ003>005-009-010-017-018-290800-
NORTH CENTRAL WISCONSIN

CITY           SKY/WX    TMP DP  RH WIND       PRES   REMARKS
MANITOWISH WTR NOT AVBL
ARBOR VITAE    CLEAR     49  48  96 NE3       30.37R
WOODRUFF       CLEAR     49  48  96 NE3       30.37R
RHINELANDER    CLEAR     47  47 100 CALM      30.36S
EAGLE RIVER    CLEAR     45  45 100 N5        30.36S
LAND O LAKES   CLOUDY    48  48  99 NE5       30.39S
PHILLIPS       MOCLDY    48  48 100 N3        30.37R
TOMAHAWK       FOG       42  41  95 CALM      30.36S VSB 1
MEDFORD        CLEAR     46  46 100 N6        30.34S
MERRILL        CLEAR     47  47 100 CALM      30.35S
$$

WIZ029-030-035-036-043>047-290800-
CENTRAL WISCONSIN

CITY           SKY/WX    TMP DP  RH WIND       PRES   REMARKS
WAUSAU         CLEAR     49  47  93 N8        30.32S
MOSINEE        CLEAR     48  48 100 N9        30.33S
MARSHFIELD     CLEAR     52  48  86 NE9       30.32R
STEVENS POINT  CLEAR     47  47  99 N6        30.32R
WAUPACA        CLEAR     53  51  94 N6        30.30R
WAUTOMA        CLEAR     52  50  93 N10       30.29R
WISC RAPIDS    CLEAR     51  49  92 NE10      30.32R
CAMP DOUGLAS   CLEAR     48  47  97 N5        30.31R
$$

WIZ011>013-019>022-031-037>040-048>050-290800-
NORTHEAST WISCONSIN

CITY           SKY/WX    TMP DP  RH WIND       PRES   REMARKS
ANTIGO         CLEAR     47  47  98 N10       30.33S
SHAWANO        CLEAR     53  50  87 N9        30.31R
OCONTO         NOT AVBL
STURGEON BAY   PTCLDY    58  55  90 N9        30.27R
GREEN BAY      PTCLDY    52  52 100 N12       30.27S
MANITOWOC      CLEAR     56  53  90 MISG      30.23S
APPLETON       PTCLDY    50  50 100 NE13      30.25S
CLINTONVILLE   CLEAR     52  48  87 N8        30.29S
OSHKOSH        CLOUDY    55  51  86 N13G22    30.25R
$$

WIZ032>034-041-042-053>061-290800-
SOUTHWEST WISCONSIN

CITY           SKY/WX    TMP DP  RH WIND       PRES   REMARKS
LA CROSSE      CLEAR     56  52  86 N7        30.31S
SPARTA         CLEAR     49  49  99 N5        30.33R
VIROQUA        CLEAR     49  49 100 N8        30.31R
BOSCOBEL       CLEAR     50  48  93 NE5       30.29R
PRAIRIE DU CHI CLEAR     54  49  82 NW6       30.28S
PLATTEVILLE    CLEAR     51  51 100 N10       30.25R
$$

WIZ056-057-062-063-064-067-068-290800-
SOUTH CENTRAL WISCONSIN

CITY           SKY/WX    TMP DP  RH WIND       PRES   REMARKS
REEDSBURG      NOT AVBL
BARABOO/DELLS  CLEAR     49  47  94 N6        30.28R
LONE ROCK      CLEAR     53  49  86 N10       30.27R
MINERAL POINT  CLEAR     52  50  93 N10       30.25R
MADISON        CLEAR     51  49  92 MISG      30.22S
MIDDLETON      CLEAR     53  53  99 N9        30.24R
WATERTOWN      MOCLDY    55  55 100 N10G17    30.20R
MONROE         CLEAR     52  50  93 N12G17    30.20S
JANESVILLE     CLEAR     55  54  94 N9G16     30.17S
$$

WIZ051-052-058>065-066-070>072-290800-
SOUTHEAST WISCONSIN

CITY           SKY/WX    TMP DP  RH WIND       PRES   REMARKS
MILWAUKEE      MOCLDY    60  56  86 N24G32    30.15S
WAUKESHA       CLOUDY    54  52  94 N10G16    30.18S
MILWAUKEE/TIMM MOCLDY    57  52  82 N15G23    30.18R
RACINE         CLOUDY    57  55  93 N17G25    30.15S
BURLINGTON     MOCLDY    55  53  90 N14G20    30.15S
KENOSHA        PTCLDY    58  55  90 N13       30.13R
FOND DU LAC    CLOUDY    56  53  90 N14       30.24S
SHEBOYGAN      CLOUDY    57  53  86 N15G21    30.21R
WEST BEND      CLOUDY    55  54  94 N15G24    30.19S
JUNEAU         PTCLDY    54  52  94 N12       30.23R
$$

LSZ147-162-290800-
LAKE SUPERIOR

STATION/POSITION TIME  TEMP    WIND        PRES    WAVE
                       AIR SEA DIR/SP/G            HT/PER
                 (UTC) (F)     (DEG/KT/KT) (MB)    (FT/S)
W MID LAKE BUOY  0650   56 54   50/ 10/ 12 1029.6R   1/ 5
DEVILS ISLAND    0600   53      20/  6/  7 1030.1R
SAXON HARBOR     0600   50     170/  4/  4 1028.8R
$$

LMZ867-665-643>646-290800-
LAKE MICHIGAN

STATION/POSITION TIME  TEMP    WIND        PRES    WAVE
                       AIR SEA DIR/SP/G            HT/PER
                 (UTC) (F)     (DEG/KT/KT) (MB)    (FT/S)
CHAMBERS ISLAND  0600   58     350/ 22/ 26 1024.7S
S GREEN BAY BUOY 0500   57 62   40/ 21/ 25 1024.0
N MID LAKE BUOY  0650   63 66   30/ 19/ 23 1024.1R   4/ 5
NORTHPORT PIER   0600   60     350/ 17/ 20 1025.1S
KEWAUNEE LAKESHO 0600   57     360/  8/ 14 1023.3S
SHEBOYGAN LAKESH 0700   58      10/ 22/ 25 1022.3R
PORT WASHINGTON  0640   60     360/ 11/ 17 1022.4F
ATWATER BUOY     0600   56 53   10/ 21/ 25 1020.5F
MILWAUKEE LAKESH 0610   58     360/ 22/ 26   N/A
S MID LAKE BUOY  0650   65 69   50/ 25/ 29 1017.7R   7/ 7
KENOSHA   LAKESH 0700   58     360/ 24/ 28 1019.3F
$$

TC  - TEMPERATURE IN CELSIUS
VSB - VISIBILITY IN STATUTE MILES
WCI - WIND CHILL INDEX
HX  - HEAT INDEX





USA.gov is the U.S. government's official web portal to all federal, state and local government web resources and services.